TimeEDT,TemperatureF,Dew PointF,Humidity,Sea Level PressureIn,VisibilityMPH,Wind Direction,Wind SpeedMPH,Gust SpeedMPH,PrecipitationIn,Events,Conditions,WindDirDegrees,DateUTC
12:55 AM,44.6,44.1,98,29.99,10.0,NNW,5.8,-,N/A,,Clear,340,2013-04-14 04:55:00
1:55 AM,45.1,44.1,96,29.99,10.0,Calm,Calm,-,N/A,,Clear,0,2013-04-14 05:55:00
2:09 AM,46.4,44.6,93,29.99,10.0,East,3.5,-,N/A,,Mostly Cloudy,80,2013-04-14 06:09:00
2:35 AM,46.4,44.6,93,29.98,10.0,East,3.5,-,N/A,,Scattered Clouds,90,2013-04-14 06:35:00
2:55 AM,44.1,43.0,96,29.98,10.0,SE,3.5,-,N/A,,Clear,130,2013-04-14 06:55:00
3:55 AM,45.5,45.1,99,29.98,10.0,South,4.6,-,N/A,,Clear,190,2013-04-14 07:55:00
4:55 AM,42.6,42.3,99,29.98,9.0,Calm,Calm,-,N/A,,Clear,0,2013-04-14 08:55:00
5:01 AM,42.8,42.8,100,29.99,7.0,Calm,Calm,-,N/A,,Clear,0,2013-04-14 09:01:00
5:06 AM,41.0,41.0,100,29.99,8.0,NNW,3.5,-,N/A,,Clear,330,2013-04-14 09:06:00
5:55 AM,41.9,41.7,99,30.02,10.0,WNW,4.6,-,N/A,,Clear,290,2013-04-14 09:55:00
6:55 AM,43.0,42.8,99,30.04,8.0,SSW,3.5,-,N/A,,Clear,200,2013-04-14 10:55:00
7:55 AM,47.5,47.3,99,30.06,10.0,NW,6.9,-,N/A,,Clear,320,2013-04-14 11:55:00
8:55 AM,52.3,47.3,83,30.09,10.0,SW,6.9,-,N/A,,Clear,220,2013-04-14 12:55:00
9:55 AM,56.7,41.9,58,30.10,10.0,NW,11.5,-,N/A,,Clear,320,2013-04-14 13:55:00
10:55 AM,59.0,40.3,50,30.11,10.0,NNW,11.5,-,N/A,,Clear,330,2013-04-14 14:55:00
11:55 AM,60.8,39.4,45,30.11,10.0,West,10.4,-,N/A,,Clear,270,2013-04-14 15:55:00
12:55 PM,62.2,40.6,45,30.09,10.0,West,10.4,23.0,N/A,,Clear,280,2013-04-14 16:55:00
1:55 PM,63.1,39.2,41,30.09,10.0,WNW,13.8,23.0,N/A,,Clear,290,2013-04-14 17:55:00
2:55 PM,63.3,38.7,40,30.09,10.0,WNW,10.4,-,N/A,,Clear,300,2013-04-14 18:55:00
3:55 PM,63.1,38.1,40,30.08,10.0,West,8.1,-,N/A,,Clear,270,2013-04-14 19:55:00
4:55 PM,63.9,37.6,38,30.09,10.0,Variable,5.8,-,N/A,,Clear,0,2013-04-14 20:55:00
5:55 PM,63.3,34.3,34,30.11,10.0,West,8.1,-,N/A,,Clear,280,2013-04-14 21:55:00
6:55 PM,59.7,41.4,51,30.13,10.0,NNE,3.5,-,N/A,,Clear,20,2013-04-14 22:55:00
7:55 PM,55.0,42.3,62,30.14,10.0,NE,4.6,-,N/A,,Clear,50,2013-04-14 23:55:00
8:55 PM,54.0,41.9,64,30.16,10.0,SE,6.9,-,N/A,,Clear,140,2013-04-15 00:55:00
9:55 PM,53.1,40.6,63,30.16,10.0,East,3.5,-,N/A,,Clear,100,2013-04-15 01:55:00
10:55 PM,52.7,42.4,68,30.14,10.0,SE,4.6,-,N/A,,Clear,130,2013-04-15 02:55:00
11:55 PM,52.9,43.3,70,30.15,10.0,South,5.8,-,N/A,,Clear,170,2013-04-15 03:55:00